When you browse on this site, cookies collect data to enhance your experience and personalize the content and advertising you see.
Visit our Privacy Policy to learn more. By continuing to use the site, you agree to this use of cookies and data.
  • In Romania
  • List of Countries
  • For 7 days
  • Water Temperature
  • Satellite Maps
  • Weather Map
  • Weather Widgets
  • user-avatar
    Login

    Hourly Weather Krzczonow

    Today, 17 June, Monday

    Time Temperature Precipitation Wind Pressure Humidity
    00:00 +15°C° 0 mm 1 mps 744 mmHg 82%
    01:00 +15°C° 0 mm 1 mps 745 mmHg 82%
    02:00 +15°C° 0 mm 1 mps 745 mmHg 85%
    03:00 +14°C° 0 mm 1 mps 745 mmHg 88%
    04:00 +13°C° 0 mm 1 mps 745 mmHg 91%
    05:00 +15°C° 0 mm 1 mps 745 mmHg 86%
    06:00 +18°C° 0 mm 1 mps 745 mmHg 81%
    07:00 +19°C° 0 mm 1 mps 745 mmHg 77%
    08:00 +19°C° 0 mm 2 mps 745 mmHg 71%
    09:00 +20°C° 0 mm 2 mps 745 mmHg 65%
    10:00 +21°C° 0 mm 3 mps 745 mmHg 59%
    11:00 +22°C° 0 mm 3 mps 745 mmHg 57%
    12:00 +22°C° 0 mm 3 mps 745 mmHg 55%
    13:00 +24°C° 0 mm 3 mps 745 mmHg 53%
    14:00 +24°C° 0 mm 3 mps 745 mmHg 54%
    15:00 +24°C° 0 mm 3 mps 744 mmHg 56%
    16:00 +24°C° 0 mm 3 mps 744 mmHg 57%
    17:00 +22°C° 0 mm 3 mps 744 mmHg 64%
    18:00 +21°C° 0 mm 2 mps 744 mmHg 71%
    19:00 +20°C° 0 mm 2 mps 744 mmHg 78%
    20:00 +18°C° 0 mm 2 mps 744 mmHg 81%
    21:00 +18°C° 0 mm 1 mps 744 mmHg 84%
    22:00 +15°C° 0 mm 1 mps 744 mmHg 87%
    23:00 +15°C° 0 mm 1 mps 744 mmHg 87%

    Tomorrow, 18 June, Tuesday

    Time Temperature Precipitation Wind Pressure Humidity
    00:00 +15°C° 0 mm 1 mps 744 mmHg 88%
    01:00 +13°C° 0 mm 0 mps 744 mmHg 89%
    02:00 +13°C° 0 mm 0 mps 743 mmHg 90%
    03:00 +13°C° 0 mm 0 mps 743 mmHg 91%
    04:00 +13°C° 0 mm 0 mps 743 mmHg 92%
    05:00 +15°C° 0 mm 1 mps 743 mmHg 90%
    06:00 +18°C° 0 mm 1 mps 743 mmHg 88%
    07:00 +18°C° 0 mm 2 mps 743 mmHg 86%
    08:00 +19°C° 0 mm 2 mps 743 mmHg 82%
    09:00 +21°C° 0 mm 3 mps 743 mmHg 79%
    10:00 +22°C° 0 mm 3 mps 743 mmHg 75%
    11:00 +24°C° 0 mm 3 mps 742 mmHg 72%
    12:00 +24°C° 0 mm 3 mps 742 mmHg 70%
    13:00 +25°C° 0 mm 3 mps 741 mmHg 67%
    14:00 +25°C° 0 mm 3 mps 741 mmHg 67%
    15:00 +25°C° 0 mm 3 mps 741 mmHg 67%
    16:00 +26°C° 0 mm 3 mps 741 mmHg 67%
    17:00 +25°C° 0 mm 3 mps 740 mmHg 73%
    18:00 +24°C° 0 mm 2 mps 740 mmHg 78%
    19:00 +23°C° 0 mm 2 mps 740 mmHg 83%
    20:00 +21°C° 0 mm 2 mps 740 mmHg 86%
    21:00 +20°C° 0 mm 1 mps 740 mmHg 89%
    22:00 +19°C° 0 mm 1 mps 740 mmHg 92%
    23:00 +19°C° 0 mm 1 mps 740 mmHg 92%

    Day after tomorrow, 19 June, Wednesday

    Time Temperature Precipitation Wind Pressure Humidity
    00:00 +18°C° 0 mm 1 mps 739 mmHg 93%
    01:00 +18°C° 0 mm 1 mps 739 mmHg 93%
    02:00 +18°C° 0 mm 1 mps 739 mmHg 93%
    03:00 +18°C° 0 mm 1 mps 738 mmHg 93%
    04:00 +16°C° 0 mm 0 mps 738 mmHg 93%
    05:00 +19°C° 0 mm 1 mps 738 mmHg 89%
    06:00 +21°C° 0 mm 1 mps 738 mmHg 85%
    07:00 +22°C° 0 mm 1 mps 738 mmHg 81%
    08:00 +24°C° 0 mm 1 mps 738 mmHg 76%
    09:00 +25°C° 0 mm 1 mps 738 mmHg 70%
    10:00 +27°C° 0 mm 1 mps 738 mmHg 64%
    11:00 +28°C° 0 mm 1 mps 738 mmHg 61%
    12:00 +28°C° 0 mm 2 mps 738 mmHg 58%
    13:00 +29°C° 0 mm 2 mps 738 mmHg 55%
    14:00 +29°C° 0.1 mm 2 mps 737 mmHg 57%
    15:00 +28°C° 0.1 mm 2 mps 737 mmHg 60%
    16:00 +28°C° 0.1 mm 2 mps 737 mmHg 63%
    17:00 +27°C° 0.3 mm 2 mps 737 mmHg 68%
    18:00 +26°C° 0.3 mm 1 mps 737 mmHg 73%
    19:00 +25°C° 0.3 mm 1 mps 736 mmHg 78%
    20:00 +24°C° 0 mm 1 mps 737 mmHg 80%
    21:00 +21°C° 0 mm 2 mps 737 mmHg 82%
    22:00 +20°C° 0 mm 2 mps 737 mmHg 84%
    23:00 +20°C° 0 mm 2 mps 737 mmHg 85%

    20 June, Thursday

    Time Temperature Precipitation Wind Pressure Humidity
    00:00 +20°C° 0 mm 2 mps 737 mmHg 85%
    01:00 +19°C° 0 mm 2 mps 736 mmHg 86%
    02:00 +19°C° 0 mm 2 mps 736 mmHg 86%
    03:00 +19°C° 0 mm 2 mps 737 mmHg 86%
    04:00 +19°C° 0 mm 2 mps 737 mmHg 86%
    05:00 +21°C° 0 mm 1 mps 737 mmHg 82%
    06:00 +23°C° 0 mm 1 mps 737 mmHg 78%
    07:00 +25°C° 0 mm 1 mps 737 mmHg 74%
    08:00 +26°C° 0.1 mm 1 mps 738 mmHg 69%
    09:00 +27°C° 0.1 mm 1 mps 738 mmHg 64%
    10:00 +29°C° 0.1 mm 1 mps 738 mmHg 58%
    11:00 +29°C° 0.4 mm 2 mps 738 mmHg 60%
    12:00 +29°C° 0.4 mm 2 mps 738 mmHg 61%
    13:00 +29°C° 0.4 mm 3 mps 738 mmHg 62%
    14:00 +29°C° 0.6 mm 2 mps 738 mmHg 62%
    15:00 +28°C° 0.6 mm 2 mps 738 mmHg 62%
    16:00 +28°C° 0.6 mm 2 mps 738 mmHg 62%
    17:00 +27°C° 0.4 mm 2 mps 738 mmHg 67%
    18:00 +26°C° 0.4 mm 2 mps 738 mmHg 72%
    19:00 +25°C° 0.4 mm 2 mps 738 mmHg 77%
    20:00 +23°C° 0.7 mm 1 mps 738 mmHg 80%
    21:00 +22°C° 0.7 mm 1 mps 738 mmHg 82%
    22:00 +21°C° 0.7 mm 1 mps 738 mmHg 85%
    23:00 +21°C° 0.2 mm 1 mps 738 mmHg 86%

    21 June, Friday

    Time Temperature Precipitation Wind Pressure Humidity
    00:00 +18°C° 0.2 mm 0 mps 738 mmHg 87%
    01:00 +18°C° 0.2 mm 0 mps 738 mmHg 89%
    02:00 +19°C° 0.4 mm 1 mps 738 mmHg 90%
    03:00 +19°C° 0.4 mm 1 mps 738 mmHg 91%
    04:00 +19°C° 0.4 mm 1 mps 738 mmHg 92%
    05:00 +19°C° 0.3 mm 2 mps 738 mmHg 92%
    06:00 +19°C° 0.3 mm 2 mps 738 mmHg 91%
    07:00 +20°C° 0.3 mm 3 mps 739 mmHg 91%
    08:00 +21°C° 0.3 mm 3 mps 739 mmHg 88%
    09:00 +22°C° 0.3 mm 4 mps 739 mmHg 85%
    10:00 +22°C° 0.3 mm 4 mps 739 mmHg 82%
    11:00 +23°C° 0.2 mm 4 mps 739 mmHg 81%
    12:00 +23°C° 0.2 mm 4 mps 738 mmHg 80%
    13:00 +25°C° 0.2 mm 3 mps 738 mmHg 79%
    14:00 +25°C° 0.1 mm 3 mps 738 mmHg 79%
    15:00 +25°C° 0.1 mm 3 mps 738 mmHg 79%
    16:00 +25°C° 0.1 mm 3 mps 738 mmHg 79%
    17:00 +24°C° 0.2 mm 3 mps 738 mmHg 82%
    18:00 +24°C° 0.2 mm 3 mps 737 mmHg 85%
    19:00 +22°C° 0.2 mm 3 mps 737 mmHg 88%
    20:00 +21°C° 0.2 mm 3 mps 738 mmHg 91%
    21:00 +20°C° 0.2 mm 2 mps 738 mmHg 94%
    22:00 +19°C° 0.2 mm 2 mps 738 mmHg 97%
    23:00 +18°C° 0.2 mm 2 mps 738 mmHg 97%

    22 June, Saturday

    Time Temperature Precipitation Wind Pressure Humidity
    00:00 +18°C° 0.2 mm 3 mps 738 mmHg 97%
    01:00 +18°C° 0.2 mm 3 mps 738 mmHg 97%
    02:00 +18°C° 0 mm 3 mps 738 mmHg 97%
    03:00 +18°C° 0 mm 3 mps 738 mmHg 97%
    04:00 +18°C° 0 mm 3 mps 738 mmHg 97%
    05:00 +18°C° 1 mm 3 mps 738 mmHg 97%
    06:00 +18°C° 1 mm 3 mps 738 mmHg 97%
    07:00 +18°C° 1 mm 3 mps 739 mmHg 97%
    08:00 +18°C° 0.9 mm 3 mps 738 mmHg 97%
    09:00 +18°C° 0.9 mm 3 mps 738 mmHg 97%
    10:00 +18°C° 0.9 mm 3 mps 738 mmHg 97%
    11:00 +18°C° 0.4 mm 3 mps 738 mmHg 96%
    12:00 +18°C° 0.4 mm 3 mps 738 mmHg 96%
    13:00 +19°C° 0.4 mm 3 mps 738 mmHg 95%
    14:00 +19°C° 0.1 mm 3 mps 738 mmHg 94%
    15:00 +19°C° 0.1 mm 3 mps 738 mmHg 94%
    16:00 +19°C° 0.1 mm 3 mps 738 mmHg 93%
    17:00 +18°C° 0.3 mm 3 mps 738 mmHg 93%
    18:00 +18°C° 0.3 mm 3 mps 738 mmHg 94%
    19:00 +18°C° 0.3 mm 3 mps 738 mmHg 95%
    20:00 +17°C° 0.1 mm 3 mps 738 mmHg 96%
    21:00 +17°C° 0.1 mm 2 mps 738 mmHg 97%
    22:00 +17°C° 0.1 mm 2 mps 739 mmHg 97%
    23:00 +17°C° 0.1 mm 2 mps 739 mmHg 97%
    Show more